Simultaneous Nadir Overpasses (SNOs) Predictions

Prediction of SNOs between NOAA-19 and TERRA Satellite Orbit:

Table of predicted SNOs for the next 14.0 days since TLE Epoch: 12/3/2022
Index Date (NOAA-19) Time (NOAA-19) Lat,Lon (NOAA-19) SZA (NOAA-19 ) Date (TERRA) Time (TERRA) Lat,Lon (TERRA) SZA (TERRA ) Distance(km) Time Diff (sec)
1 12/04/2022 20:30:47 80.91, -92.06 105.02 12/04/2022 20:30:39 80.89, -92.19 104.99 2.98 8
2 12/07/2022 00:21:36 -80.91, 30.20 74.75 12/07/2022 00:21:38 -80.90, 30.17 74.76 0.89 2
3 12/09/2022 04:12:20 80.91, 152.54 105.47 12/09/2022 04:12:35 80.92, 152.66 105.49 2.48 15
4 12/11/2022 08:03:10 -80.91, -85.25 74.37 12/11/2022 08:03:34 -80.92, -85.10 74.34 2.81 24
5 12/11/2022 08:54:06 80.91, 82.15 105.65 12/11/2022 08:52:57 80.90, 82.25 105.62 2.14 69
6 12/13/2022 11:53:53 80.91, 37.01 105.76 12/13/2022 11:54:32 80.90, 36.91 105.76 1.93 39
7 12/13/2022 12:44:55 -80.91,-155.12 74.19 12/13/2022 12:43:55 -80.92,-155.24 74.21 2.53 60
8 12/15/2022 15:44:43 -80.91, 159.49 74.13 12/15/2022 15:45:30 -80.92, 159.36 74.12 2.57 47



Historial Predications of SNOs between NOAA-19 and TERRA
